When you browse on this site, cookies collect data to enhance your experience and personalize the content and advertising you see.
Visit our Privacy Policy to learn more. By continuing to use the site, you agree to this use of cookies and data.
  • In United Kingdom
  • List of Countries
  • For 7 days
  • Water Temperature
  • Satellite Maps
  • Weather Map
  • Weather Widgets
  • user-avatar
    Login

    Hourly Weather Klagenfurt

    Today, 13 December, Thursday

    Time Temperature Precipitation Wind Pressure Humidity
    00:00 -2°C° 0 mm 1 mps 690 mmHg 74%
    01:00 -2°C° 0 mm 1 mps 689 mmHg 76%
    02:00 -3°C° 0 mm 1 mps 689 mmHg 78%
    03:00 -3°C° 0 mm 1 mps 689 mmHg 80%
    04:00 -3°C° 0 mm 1 mps 689 mmHg 82%
    05:00 -3°C° 0 mm 1 mps 689 mmHg 83%
    06:00 -3°C° 0 mm 1 mps 688 mmHg 84%
    07:00 -3°C° 0 mm 1 mps 688 mmHg 85%
    08:00 -2°C° 0.1 mm 1 mps 688 mmHg 82%
    09:00 -1°C° 0.1 mm 1 mps 688 mmHg 79%
    10:00 -3°C° 0.1 mm 2 mps 688 mmHg 76%
    11:00 -2°C° 0.1 mm 2 mps 688 mmHg 74%
    12:00 -2°C° 0.1 mm 2 mps 688 mmHg 71%
    13:00 -2°C° 0.1 mm 2 mps 688 mmHg 69%
    14:00 -2°C° 0.2 mm 2 mps 687 mmHg 73%
    15:00 -3°C° 0.2 mm 2 mps 687 mmHg 76%
    16:00 -1°C° 0.2 mm 1 mps 687 mmHg 79%
    17:00 -1°C° 0.1 mm 1 mps 687 mmHg 81%
    18:00 -2°C° 0.1 mm 1 mps 687 mmHg 83%
    19:00 -2°C° 0.1 mm 1 mps 687 mmHg 85%
    20:00 -2°C° 0.1 mm 1 mps 687 mmHg 86%
    21:00 -2°C° 0.1 mm 1 mps 687 mmHg 87%
    22:00 -3°C° 0.1 mm 1 mps 688 mmHg 88%
    23:00 -3°C° 0.1 mm 1 mps 688 mmHg 88%

    Tomorrow, 14 December, Friday

    Time Temperature Precipitation Wind Pressure Humidity
    00:00 -3°C° 0.1 mm 1 mps 688 mmHg 87%
    01:00 -3°C° 0.1 mm 1 mps 688 mmHg 87%
    02:00 -3°C° 0.1 mm 1 mps 688 mmHg 87%
    03:00 -3°C° 0.1 mm 1 mps 688 mmHg 87%
    04:00 -3°C° 0.1 mm 1 mps 688 mmHg 87%
    05:00 -3°C° 0 mm 1 mps 688 mmHg 87%
    06:00 -3°C° 0 mm 1 mps 688 mmHg 86%
    07:00 -3°C° 0 mm 1 mps 688 mmHg 85%
    08:00 -5°C° 0 mm 2 mps 689 mmHg 81%
    09:00 -4°C° 0 mm 2 mps 689 mmHg 78%
    10:00 -3°C° 0 mm 2 mps 689 mmHg 74%
    11:00 -3°C° 0 mm 2 mps 689 mmHg 71%
    12:00 -2°C° 0 mm 2 mps 689 mmHg 67%
    13:00 -2°C° 0 mm 2 mps 689 mmHg 64%
    14:00 -2°C° 0 mm 2 mps 689 mmHg 67%
    15:00 -3°C° 0 mm 2 mps 688 mmHg 71%
    16:00 -4°C° 0 mm 2 mps 688 mmHg 74%
    17:00 -4°C° 0 mm 2 mps 689 mmHg 77%
    18:00 -5°C° 0 mm 2 mps 689 mmHg 80%
    19:00 -5°C° 0 mm 2 mps 689 mmHg 82%
    20:00 -6°C° 0 mm 2 mps 689 mmHg 83%
    21:00 -6°C° 0 mm 2 mps 689 mmHg 83%
    22:00 -6°C° 0 mm 2 mps 690 mmHg 84%
    23:00 -6°C° 0 mm 2 mps 690 mmHg 84%

    Day after tomorrow, 15 December, Saturday

    Time Temperature Precipitation Wind Pressure Humidity
    00:00 -4°C° 0 mm 1 mps 690 mmHg 84%
    01:00 -6°C° 0 mm 1 mps 690 mmHg 84%
    02:00 -6°C° 0 mm 1 mps 690 mmHg 83%
    03:00 -6°C° 0 mm 1 mps 690 mmHg 82%
    04:00 -6°C° 0 mm 1 mps 690 mmHg 81%
    05:00 -6°C° 0 mm 1 mps 690 mmHg 80%
    06:00 -6°C° 0 mm 1 mps 690 mmHg 79%
    07:00 -6°C° 0 mm 1 mps 690 mmHg 79%
    08:00 -4°C° 0 mm 1 mps 690 mmHg 73%
    09:00 -5°C° 0 mm 2 mps 691 mmHg 68%
    10:00 -4°C° 0 mm 2 mps 691 mmHg 63%
    11:00 -3°C° 0 mm 2 mps 691 mmHg 60%
    12:00 -2°C° 0 mm 2 mps 691 mmHg 57%
    13:00 +1°C° 0 mm 1 mps 691 mmHg 53%
    14:00 0°C° 0 mm 1 mps 690 mmHg 58%
    15:00 -1°C° 0 mm 1 mps 690 mmHg 63%
    16:00 -2°C° 0 mm 1 mps 690 mmHg 67%
    17:00 -3°C° 0 mm 1 mps 690 mmHg 70%
    18:00 -3°C° 0 mm 1 mps 690 mmHg 73%
    19:00 -4°C° 0 mm 1 mps 691 mmHg 76%
    20:00 -4°C° 0 mm 1 mps 691 mmHg 76%
    21:00 -4°C° 0 mm 1 mps 691 mmHg 75%
    22:00 -4°C° 0 mm 1 mps 691 mmHg 75%
    23:00 -6°C° 0 mm 1 mps 690 mmHg 74%

    16 December, Sunday

    Time Temperature Precipitation Wind Pressure Humidity
    00:00 -6°C° 0 mm 1 mps 690 mmHg 73%
    01:00 -6°C° 0 mm 1 mps 690 mmHg 73%
    02:00 -6°C° 0 mm 1 mps 690 mmHg 72%
    03:00 -6°C° 0 mm 1 mps 689 mmHg 71%
    04:00 -6°C° 0 mm 1 mps 689 mmHg 71%
    05:00 -6°C° 0 mm 1 mps 689 mmHg 70%
    06:00 -6°C° 0 mm 1 mps 689 mmHg 70%
    07:00 -6°C° 0 mm 1 mps 689 mmHg 69%
    08:00 -5°C° 0 mm 0 mps 689 mmHg 65%
    09:00 -3°C° 0 mm 0 mps 689 mmHg 60%
    10:00 -2°C° 0 mm 0 mps 689 mmHg 56%
    11:00 0°C° 0 mm 1 mps 689 mmHg 53%
    12:00 +1°C° 0 mm 1 mps 689 mmHg 51%
    13:00 +2°C° 0 mm 1 mps 689 mmHg 48%
    14:00 +1°C° 0 mm 1 mps 688 mmHg 53%
    15:00 0°C° 0 mm 1 mps 688 mmHg 59%
    16:00 -1°C° 0 mm 1 mps 688 mmHg 64%
    17:00 -1°C° 0 mm 1 mps 688 mmHg 66%
    18:00 -1°C° 0 mm 1 mps 688 mmHg 67%
    19:00 -1°C° 0 mm 1 mps 688 mmHg 68%
    20:00 -1°C° 0.3 mm 1 mps 688 mmHg 73%
    21:00 -1°C° 0.3 mm 1 mps 688 mmHg 77%
    22:00 -1°C° 0.3 mm 1 mps 689 mmHg 82%
    23:00 -2°C° 0.9 mm 0 mps 689 mmHg 86%

    17 December, Monday

    Time Temperature Precipitation Wind Pressure Humidity
    00:00 -2°C° 0.9 mm 0 mps 689 mmHg 90%
    01:00 -2°C° 0.9 mm 0 mps 689 mmHg 94%
    02:00 -2°C° 0.6 mm 0 mps 689 mmHg 94%
    03:00 -2°C° 0.6 mm 0 mps 689 mmHg 93%
    04:00 -2°C° 0.6 mm 0 mps 689 mmHg 93%
    05:00 -2°C° 0.1 mm 0 mps 689 mmHg 93%
    06:00 -2°C° 0.1 mm 0 mps 689 mmHg 93%
    07:00 -1°C° 0.1 mm 0 mps 690 mmHg 92%
    08:00 -1°C° 0 mm 0 mps 690 mmHg 89%
    09:00 0°C° 0 mm 0 mps 691 mmHg 87%
    10:00 +1°C° 0 mm 0 mps 691 mmHg 84%
    11:00 +2°C° 0 mm 0 mps 691 mmHg 81%
    12:00 +3°C° 0 mm 0 mps 691 mmHg 79%
    13:00 +3°C° 0 mm 0 mps 691 mmHg 76%
    14:00 +2°C° 0 mm 0 mps 691 mmHg 81%
    15:00 +1°C° 0 mm 0 mps 691 mmHg 85%
    16:00 0°C° 0 mm 0 mps 691 mmHg 90%
    17:00 -1°C° 0 mm 0 mps 691 mmHg 90%
    18:00 -1°C° 0 mm 0 mps 692 mmHg 91%
    19:00 -1°C° 0 mm 1 mps 692 mmHg 91%
    20:00 -1°C° 0 mm 1 mps 692 mmHg 91%
    21:00 -1°C° 0 mm 1 mps 693 mmHg 90%
    22:00 -2°C° 0 mm 1 mps 693 mmHg 90%
    23:00 -2°C° 0 mm 1 mps 693 mmHg 89%

    18 December, Tuesday

    Time Temperature Precipitation Wind Pressure Humidity
    00:00 -2°C° 0 mm 1 mps 693 mmHg 89%
    01:00 -2°C° 0 mm 1 mps 693 mmHg 88%
    02:00 -2°C° 0 mm 1 mps 693 mmHg 88%
    03:00 -2°C° 0 mm 1 mps 693 mmHg 88%
    04:00 -2°C° 0 mm 1 mps 693 mmHg 87%
    05:00 -2°C° 0 mm 1 mps 693 mmHg 87%
    06:00 -2°C° 0 mm 1 mps 693 mmHg 86%
    07:00 -2°C° 0 mm 1 mps 693 mmHg 86%
    08:00 -1°C° 0 mm 1 mps 694 mmHg 83%
    09:00 0°C° 0 mm 1 mps 694 mmHg 80%
    10:00 +1°C° 0 mm 1 mps 694 mmHg 77%
    11:00 +1°C° 0 mm 0 mps 694 mmHg 74%
    12:00 +2°C° 0 mm 0 mps 694 mmHg 71%
    13:00 +2°C° 0 mm 0 mps 693 mmHg 68%
    14:00 +1°C° 0 mm 0 mps 693 mmHg 74%
    15:00 0°C° 0 mm 0 mps 693 mmHg 79%
    16:00 -1°C° 0 mm 0 mps 692 mmHg 84%
    17:00 -2°C° 0 mm 0 mps 692 mmHg 85%
    18:00 -3°C° 0 mm 0 mps 692 mmHg 87%
    19:00 -3°C° 0 mm 0 mps 692 mmHg 88%
    20:00 -4°C° 0 mm 0 mps 692 mmHg 88%
    21:00 -3°C° 0 mm 1 mps 692 mmHg 88%
    22:00 -3°C° 0 mm 1 mps 692 mmHg 89%
    23:00 -3°C° 0 mm 1 mps 691 mmHg 89%
    Show more